Regional Weather Roundup
Issued by NWS Sterling, VA

Home | Current Version | Previous Version | Text Only | Print | Product List | Glossary Off
Versions: 1 2 3 4 5 6 7 8 9 10 11 12 13 14 15 16 17 18 19 20 21 22 23 24 25 26 27 28 29 30 31 32 33 34 35 36 37 38 39 40 41 42 43 44 45 46 47 48 49 50

000
ASUS41 KLWX 012110
RWRLWX

REGIONAL WEATHER ROUNDUP
NATIONAL WEATHER SERVICE BALTIMORE MD/WASHINGTON DC
500 PM EDT WED JUL 01 2015

Note: "FAIR" indicates few or no clouds below 12,000 feet
with no significant weather and/or obstructions to visibility.
 TC=TEMPERATURE CELSIUS

 * =Non NWS site. Station does not report precipitation (e.g. rain,
    snow, etc.), thunder, or fog.

DCZ001-MDZ009-015-VAZ040>042-051-053>054-012200-
WASHINGTON METRO

CITY           SKY/WX    TMP DP  RH WIND       PRES   REMARKS
WASHINGTON NAT PTSUNNY   85  67  54 SW14      29.83F
DULLES         PTSUNNY   83  67  58 NW12G20   29.85R
ANDREWS AFB    MOSUNNY   83  69  62 SW13      29.83
FT BELVOIR     MOSUNNY   84  67  55 SW8       29.84F
QUANTICO       MOSUNNY   86  65  49 SW8       29.84F
COLLEGE PARK*  CLOUDY    84  63  48 CALM      29.83S
LEESBURG*      MOSUNNY   86  70  58 SW10      29.85F HX  90
MANASSAS*      CLOUDY    82  66  57 S10       29.84F
GAITHERSBURG*  SUNNY     82  64  54 W9        29.88F

$$

MDZ006>007-011-014-012200-
BALTIMORE METRO

CITY           SKY/WX    TMP DP  RH WIND       PRES   REMARKS
BWI AIRPORT    PTSUNNY   83  63  50 W10       29.82S
MD SCIENCE CTR   N/A     86  61  42 MISG      29.82F
MARTIN STATE   MOSUNNY   86  64  48 W14       29.83F
ANNAPOLIS      MOSUNNY   84  63  49 SW6       29.83S
FORT MEADE*    CLOUDY    77  66  69 W3        29.86R

$$

MDZ012-015-019>023-012200-
MARYLAND EASTERN SHORE

CITY           SKY/WX    TMP DP  RH WIND       PRES   REMARKS
OCEAN CITY     SUNNY     86  64  47 SW9       29.85S
SALISBURY      SUNNY     83  66  56 SW12      29.85F
BAY BRIDGE AP*   N/A     84  61  45 S8        29.83F
CAMBRIDGE*     SUNNY     82  64  54 S6        29.84F
EASTON*        SUNNY     86  66  51 SW10      29.88F

$$

MDZ017>025-012200-
SOUTHERN MARYLAND

CITY           SKY/WX    TMP DP  RH WIND       PRES   REMARKS
PATUXENT RIVER MOSUNNY   84  66  54 SW12      29.85S
ST INIGOES     SUNNY     85  67  54 W9        29.85S
LEONARDTOWN*   MOSUNNY   84  63  48 SW7       29.87S

$$

MDZ003>005-012200-
NORTH CENTRAL MARYLAND

CITY           SKY/WX    TMP DP  RH WIND       PRES   REMARKS
FREDERICK*     SUNNY     84  70  61 NW12      29.86F
HAGERSTOWN APT SUNNY     81  56  42 W13G22    29.86S
WESTMINSTER*   MOSUNNY   84  64  51 NW6       29.86F

$$

MDZ501>502-012200-
WESTERN MARYLAND

CITY           SKY/WX    TMP DP  RH WIND       PRES   REMARKS
OAKLAND*       MOSUNNY   68  68 100 W6        29.97F
CUMBERLAND*    MOSUNNY   81  55  41 W10       29.91F

$$

VAZ025>031-012200-
SHENANDOAH VALLEY

CITY           SKY/WX    TMP DP  RH WIND       PRES   REMARKS
WINCHESTER*    MOSUNNY   84  61  45 NW12G18   29.86F
FRONT ROYAL*   FAIR      82  63  51 W6        29.85S
LURAY*         FAIR      88  59  37 CALM      29.87S
NEW MARKET*    FAIR      83  60  44 NW3       29.85S
STAUNTON*      MOSUNNY   87  58  38 W6        29.91S
WAYNESBORO*    FAIR      82  60  47 W9        29.91S

$$

WVZ021-048>050-054>055-012200-
EASTERN WEST VIRGINIA PANHANDLE

CITY           SKY/WX    TMP DP  RH WIND       PRES   REMARKS
MARTINSBURG    MOSUNNY   81  56  42 W16       29.86F
PETERSBURG*    MOSUNNY   81  54  39 W12       29.90S

$$

VAZ036>039-050-012200-
CENTRAL FOOTHILLS

CITY           SKY/WX    TMP DP  RH WIND       PRES   REMARKS
CHARLOTTESVILL PTSUNNY   84  66  54 S9        29.86F
CULPEPER*      MOSUNNY   84  68  58 SW7       29.85F
ORANGE*        SUNNY     86  64  48 S9G17     29.87F
GORDONSVILLE*  FAIR      82  66  57 SW9G17    29.85F
WARRENTON*     FAIR      85  70  59 S8        29.84F HX  90

$$

VAZ055>057-012200-
NORTH AND CENTRAL PIEDMONT

CITY           SKY/WX    TMP DP  RH WIND       PRES   REMARKS
FREDERICKSBRG* MOSUNNY   87  67  50 SW9       29.84F HX  90
STAFFORD*      MOSUNNY   83  66  54 S7        29.89S

$$

NCZ024-NYZ072-PAZ021-071-VAZ022-071-012200-
OTHER REGIONAL OBSERVATIONS

CITY           SKY/WX    TMP DP  RH WIND       PRES   REMARKS
NEW YORK CITY  PTSUNNY   82  62  50 VRB6      29.79R
PHILADELPHIA   MOSUNNY   86  60  41 W22G28    29.81S
PITTSBURGH     MOSUNNY   75  58  55 W10       29.90F
ROANOKE        MOSUNNY   84  61  45 W8        29.93F
RICHMOND       PTSUNNY   87  65  47 W13       29.87F
RALEIGH        PTSUNNY   85  68  56 W7        29.93S

$$

ANZ530>537-012200-
MARINE OBSERVATIONS

STATION/POSITION TIME  TEMP    WIND        PRES
                       AIR SEA DIR/SP/G
                 (UTC) (F)     (DEG/KT/KT) (MB)
THOMAS PT LIGHT  NOT AVBL
BALT KEY BRIDGE  2000   83     260/  7/  8 1009.9F
COVE POINT       2000   82     260/  8/ 11 1011.5F
LEWISETTA        2000   84 80  250/  9/ 12 1010.7F
SOLOMONS ISLAND  2000      80                N/A
PINEY POINT      2000          270/  5/  7   N/A

$$



USA.gov is the U.S. government's official web portal to all federal, state and local government web resources and services.